Date String (YYYY-MM-DD hh:mm:ss) UTC,Instrument flags,absolute air pressure of the measurement (hPa),sample flow rate (lpm),inlet stack bypass flow (lpm),air temperature of the measurement (°C),ambient temperature measured by the external sensor (°C),aerosol sample conditioner tube jacket temperature (°C),OPC LED temperature (°C),internal box temperature (°C),relative humidity of the measurement (%),span deviation,mass concentration of particles derived from Lorenz-Mie calculation of OPC scattering (μg/m³),mass concentration of particles derived from Lorenz-Mie calculation of OPC scattering (μg/m³),mass concentration of particles derived from Lorenz-Mie calculation of OPC scattering (μg/m³)
DateTimeUTC,F1_M11,P_M11,Q1_M11,Q2_M11,T1_M11,T2_M11,T3_M11,T4_M11,T5_M11,U1_M11,ZSPAN_M11,X0_M11,X2_M11,X1_M11
2023-10-22 23:00:00,SystemResetWarning,0824.0,5.00,000.00,028.3,026.8,000.0,036.7,030.1,15.3,0000.0,0015.70,0005.25,0003.71
2023-10-22 23:01:00,SystemResetWarning,0824.0,5.00,000.00,028.4,027.0,000.0,036.7,030.2,15.6,0000.0,0015.62,0005.21,0003.68
2023-10-22 23:02:00,SystemResetWarning,0824.0,5.00,000.00,028.4,027.3,000.0,036.8,030.3,15.8,0000.0,0016.50,0005.22,0003.68
2023-10-22 23:03:00,SystemResetWarning,0824.0,4.99,000.00,028.5,027.4,000.0,036.8,030.3,16.1,0000.0,0016.30,0005.23,0003.68
2023-10-22 23:04:00,SystemResetWarning,0824.0,5.00,000.00,028.5,027.6,000.0,036.8,030.4,16.2,0000.0,0016.60,0005.22,0003.67
2023-10-22 23:05:00,SystemResetWarning,0824.0,5.00,000.00,028.6,027.5,000.0,036.8,030.5,16.1,0000.0,0016.94,0005.17,0003.65
2023-10-22 23:06:00,SystemResetWarning,0824.0,5.00,000.00,028.6,026.0,000.0,036.8,030.3,16.1,0000.0,0016.76,0005.14,0003.63
2023-10-22 23:07:00,SystemResetWarning,0823.9,5.00,000.00,028.5,024.4,000.0,036.8,030.0,16.2,0000.0,0017.64,0005.10,0003.60
2023-10-22 23:08:00,SystemResetWarning,0824.0,5.01,000.00,028.4,024.3,000.0,036.7,029.9,16.2,0000.0,0018.09,0005.10,0003.58
2023-10-22 23:09:00,SystemResetWarning,0824.0,5.01,000.00,028.3,024.6,000.0,036.7,029.7,16.4,0000.0,0018.02,0005.08,0003.56
2023-10-22 23:10:00,SystemResetWarning,0824.0,5.00,000.00,028.2,025.0,000.0,036.7,029.8,16.4,0000.0,0017.67,0005.08,0003.55
2023-10-22 23:11:00,SystemResetWarning,0824.0,5.01,000.00,028.2,025.5,000.0,036.7,029.8,16.4,0000.0,0017.63,0005.04,0003.53
2023-10-22 23:12:00,SystemResetWarning,0824.0,5.00,000.00,028.2,025.9,000.0,036.7,029.9,16.4,0000.0,0017.43,0005.03,0003.52
2023-10-22 23:13:00,SystemResetWarning,0824.0,4.99,000.00,028.3,026.3,000.0,036.7,030.0,16.4,0000.0,0015.92,0005.02,0003.50
2023-10-22 23:14:00,SystemResetWarning,0824.0,5.00,000.00,028.3,026.6,000.0,036.7,030.1,16.4,0000.0,0016.60,0005.02,0003.49
2023-10-22 23:15:00,SystemResetWarning,0824.0,5.00,000.00,028.4,026.9,000.0,036.7,030.2,16.3,0000.0,0016.44,0004.99,0003.48
2023-10-22 23:16:00,SystemResetWarning,0824.0,5.00,000.00,028.4,027.1,000.0,036.8,030.2,16.2,0000.0,0016.35,0004.99,0003.48
2023-10-22 23:17:00,SystemResetWarning,0824.0,5.00,000.00,028.5,027.3,000.0,036.8,030.3,16.1,0000.0,0015.86,0005.01,0003.48
2023-10-22 23:18:00,SystemResetWarning,0824.0,5.01,000.00,028.5,027.5,000.0,036.8,030.4,16.1,0000.0,0014.94,0004.99,0003.49
2023-10-22 23:19:00,SystemResetWarning,0824.1,5.00,000.00,028.6,027.3,000.0,036.8,030.4,16.1,0000.0,0013.82,0004.98,0003.49
2023-10-22 23:20:00,SystemResetWarning,0824.2,4.98,000.00,028.6,025.7,000.0,036.8,030.3,16.1,0000.0,0014.33,0005.02,0003.49
2023-10-22 23:21:00,SystemResetWarning,0824.1,5.02,000.00,028.5,025.1,000.0,036.8,030.2,16.1,0000.0,0014.42,0005.02,0003.50
2023-10-22 23:22:00,SystemResetWarning,0824.0,5.01,000.00,028.4,025.2,000.0,036.8,030.0,16.2,0000.0,0014.31,0005.04,0003.50
2023-10-22 23:23:00,SystemResetWarning,0824.0,5.00,000.00,028.4,025.6,000.0,036.8,030.0,16.2,0000.0,0014.52,0005.04,0003.51
2023-10-22 23:24:00,SystemResetWarning,0824.1,5.01,000.00,028.4,025.9,000.0,036.8,030.0,16.2,0000.0,0015.57,0005.02,0003.51
2023-10-22 23:25:00,SystemResetWarning,0824.1,5.00,000.00,028.4,026.3,000.0,036.8,030.1,16.1,0000.0,0015.45,0004.99,0003.51
2023-10-22 23:26:00,SystemResetWarning,0824.2,5.00,000.00,028.4,026.6,000.0,036.8,030.2,16.1,0000.0,0016.29,0005.04,0003.51
2023-10-22 23:27:00,SystemResetWarning,0824.1,5.00,000.00,028.5,026.9,000.0,036.8,030.2,16.0,0000.0,0016.33,0005.02,0003.51
2023-10-22 23:28:00,SystemResetWarning,0824.1,5.00,000.00,028.5,027.2,000.0,036.9,030.3,16.0,0000.0,0016.51,0004.98,0003.50
2023-10-22 23:29:00,SystemResetWarning,0824.1,5.00,000.00,028.6,027.2,000.0,036.9,030.4,16.0,0000.0,0017.15,0004.97,0003.49
2023-10-22 23:30:00,SystemResetWarning,0824.1,4.99,000.00,028.6,025.6,000.0,036.8,030.3,16.0,0000.0,0017.02,0005.00,0003.49
2023-10-22 23:31:00,SystemResetWarning,0824.1,5.00,000.00,028.5,024.1,000.0,036.8,030.0,16.0,0000.0,0016.71,0004.96,0003.47
2023-10-22 23:32:00,SystemResetWarning,0824.1,5.02,000.00,028.4,024.1,000.0,036.7,029.9,16.1,0000.0,0016.45,0004.90,0003.46
2023-10-22 23:33:00,SystemResetWarning,0824.2,5.00,000.00,028.3,024.4,000.0,036.7,029.7,16.2,0000.0,0018.09,0004.86,0003.43
2023-10-22 23:34:00,SystemResetWarning,0824.2,5.00,000.00,028.2,024.9,000.0,036.7,029.7,16.2,0000.0,0020.36,0004.87,0003.42
2023-10-22 23:35:00,SystemResetWarning,0824.1,5.00,000.00,028.2,025.4,000.0,036.7,029.8,16.1,0000.0,0020.26,0004.89,0003.42
2023-10-22 23:36:00,SystemResetWarning,0824.1,5.00,000.00,028.2,025.8,000.0,036.7,029.9,16.1,0000.0,0021.70,0004.93,0003.41
2023-10-22 23:37:00,SystemResetWarning,0824.1,5.00,000.00,028.3,026.2,000.0,036.7,030.0,16.2,0000.0,0021.54,0004.90,0003.42
2023-10-22 23:38:00,SystemResetWarning,0824.2,5.00,000.00,028.3,026.5,000.0,036.7,030.0,16.2,0000.0,0021.90,0004.93,0003.42
2023-10-22 23:39:00,SystemResetWarning,0824.2,5.00,000.00,028.3,026.8,000.0,036.8,030.1,16.2,0000.0,0022.12,0004.99,0003.42
2023-10-22 23:40:00,SystemResetWarning,0824.2,5.00,000.00,028.4,027.1,000.0,036.8,030.2,16.2,0000.0,0021.97,0005.03,0003.42
2023-10-22 23:41:00,SystemResetWarning,0824.2,5.00,000.00,028.4,027.3,000.0,036.8,030.3,16.1,0000.0,0023.83,0005.07,0003.42
2023-10-22 23:42:00,SystemResetWarning,0824.2,5.00,000.00,028.5,027.4,000.0,036.8,030.3,16.0,0000.0,0025.73,0005.10,0003.43
2023-10-22 23:43:00,SystemResetWarning,0824.3,5.00,000.00,028.5,027.3,000.0,036.8,030.4,16.0,0000.0,0026.06,0005.19,0003.43
2023-10-22 23:44:00,SystemResetWarning,0824.2,4.99,000.00,028.5,025.5,000.0,036.8,030.2,16.0,0000.0,0025.81,0005.28,0003.44
2023-10-22 23:45:00,SystemResetWarning,0824.1,5.01,000.00,028.4,024.1,000.0,036.7,030.0,16.1,0000.0,0023.90,0005.33,0003.45
2023-10-22 23:46:00,SystemResetWarning,0824.1,5.02,000.00,028.3,024.1,000.0,036.7,029.8,16.2,0000.0,0023.97,0005.33,0003.45
2023-10-22 23:47:00,SystemResetWarning,0824.1,4.99,000.00,028.2,024.4,000.0,036.7,029.6,16.2,0000.0,0023.43,0005.33,0003.46
2023-10-22 23:48:00,SystemResetWarning,0824.1,5.00,000.00,028.2,024.9,000.0,036.7,029.7,16.3,0000.0,0022.40,0005.35,0003.46
2023-10-22 23:49:00,SystemResetWarning,0824.1,5.00,000.00,028.2,025.4,000.0,036.7,029.8,16.4,0000.0,0022.14,0005.42,0003.46
2023-10-22 23:50:00,SystemResetWarning,0824.1,4.99,000.00,028.2,025.8,000.0,036.7,029.9,16.4,0000.0,0024.14,0005.39,0003.46
2023-10-22 23:51:00,SystemResetWarning,0824.2,4.99,000.00,028.2,026.2,000.0,036.7,029.9,16.4,0000.0,0024.58,0005.44,0003.45
2023-10-22 23:52:00,SystemResetWarning,0824.2,5.00,000.00,028.2,026.5,000.0,036.7,030.0,16.3,0000.0,0024.15,0005.38,0003.45
2023-10-22 23:53:00,SystemResetWarning,0824.3,5.01,000.00,028.3,026.8,000.0,036.7,030.1,16.3,0000.0,0022.64,0005.43,0003.45
2023-10-22 23:54:00,SystemResetWarning,0824.3,5.00,000.00,028.3,027.0,000.0,036.7,030.2,16.2,0000.0,0023.25,0005.43,0003.45
2023-10-22 23:55:00,SystemResetWarning,0824.3,4.99,000.00,028.4,027.2,000.0,036.7,030.2,16.2,0000.0,0022.44,0005.37,0003.46
2023-10-22 23:56:00,SystemResetWarning,0824.3,5.00,000.00,028.4,027.4,000.0,036.7,030.3,16.2,0000.0,0022.49,0005.34,0003.46
2023-10-22 23:57:00,SystemResetWarning,0824.3,5.00,000.00,028.5,027.5,000.0,036.8,030.3,16.1,0000.0,0021.99,0005.34,0003.46
2023-10-22 23:58:00,SystemResetWarning,0824.3,5.00,000.00,028.5,027.2,000.0,036.8,030.4,16.0,0000.0,0020.69,0005.33,0003.45
2023-10-22 23:59:00,SystemResetWarning,0824.3,5.01,000.00,028.5,025.5,000.0,036.8,030.2,16.0,0000.0,0020.46,0005.29,0003.44
